Location: El Bakhil
(32.7726°N, 5.5387°W)
Time: 21:04:37
(UTC+00:00)

Daily predictions for brighter satellites

Satellite Brightness Start Highest point End
(mag) Time Altitude Azimuth Time Altitude Azimuth Time Altitude Azimuth
MOS 1 Rocket 4.4 18:38:25 10° N 18:43:28 56° WNW 18:48:42 10° SSW
DELTA 2 R/B (1) 4.4 18:40:01 10° SSW 18:45:00 34° SE 18:49:58 10° E
Okean O Rocket 3.3 18:43:05 10° SSW 18:47:07 39° W 18:51:11 10° NNW
CZ-4B R/B 2.4 18:44:12 10° N 18:47:09 45° WNW 18:50:07 10° SSW
Cosmos 1500 4.0 18:45:23 10° SSE 18:48:33 27° E 18:51:44 10° NNE
Cosmos 2333 Rocket 3.5 18:46:07 10° SE 18:49:59 19° E 18:53:54 10° ENE
CZ-2D R/B 3.4 18:47:29 10° S 18:51:16 76° WSW 18:55:04 10° NNW
Cosmos 1933 Rocket 4.1 18:54:42 10° SSE 18:58:39 35° E 19:02:37 10° NNE
Cosmos 1666 Rocket 4.5 18:55:54 10° SSW 19:00:07 53° W 19:04:21 10° N
Cosmos 1689 Rocket 1.9 18:57:42 10° NNE 19:00:32 64° E 19:03:24 10° S
BREEZE-M DEB (TANK) 2.4 18:58:15 10° SW 19:01:19 75° SE 19:03:36 11° NE
COSMOS 2455 4.1 18:56:30 10° NW 19:02:12 46° WSW 19:07:52 10° S
CZ-2C R/B 3.9 18:59:38 10° S 19:05:21 62° W 19:10:55 10° NNW
Aureole 2 Rocket 3.7 19:06:07 10° NNE 19:06:52 13° NE 19:06:52 13° NE
Hubble Space Telescope 2.9 19:06:02 10° S 19:08:05 13° SSE 19:10:07 10° SE
Cosmos 2322 Rocket 3.0 19:04:07 10° SW 19:09:34 54° WNW 19:15:05 10° N
Cosmos 1862 Rocket 3.6 19:05:13 10° N 19:09:40 63° E 19:14:04 10° SSE
Lacrosse 4 Rocket 2.6 19:08:27 10° SSE 19:11:53 23° ESE 19:14:29 14° ENE
Helios 1A Rocket 3.2 19:12:16 10° SE 19:16:06 42° ENE 19:19:55 10° N
YAOGAN 1 2.5 19:12:26 10° SSE 19:16:45 84° ENE 19:21:05 10° N
COSMOS 2428 3.6 19:15:22 10° SSE 19:19:57 26° ESE 19:24:33 10° NE
SME Rocket 4.5 19:16:49 10° NNE 19:22:30 30° E 19:26:38 10° SSE
Cosmos 2154 Rocket 4.3 19:17:04 10° SSW 19:23:16 72° W 19:29:28 10° N
GP-B 3.3 19:20:18 10° SSE 19:24:33 48° E 19:28:49 10° N
Meteor 1-14 Rocket 4.2 19:19:01 10° S 19:24:37 89° W 19:30:11 10° N
Nadezhda 3 Rocket 4.0 19:18:30 10° N 19:24:53 78° E 19:31:14 10° S
Cosmos 2219 Rocket 2.6 19:21:48 10° S 19:26:51 36° ESE 19:31:55 10° NE
Meteor 1-11 Rocket 4.4 19:22:31 10° SSE 19:27:30 31° E 19:32:25 10° NNE
APEX 3.9 19:26:57 10° NW 19:29:28 36° WSW 19:32:05 10° S
ARGOS 3.1 19:28:33 10° SSE 19:33:57 87° ENE 19:39:24 10° NNW
SL-16 R/B 4.4 19:29:47 10° WSW 19:34:26 26° WNW 19:39:06 10° N
Okean 1 4.1 19:35:56 10° NNW 19:39:52 55° W 19:43:49 10° S
CZ-4 R/B 2.9 19:36:40 10° SSW 19:40:12 35° W 19:43:47 10° NNW
Cosmos 968 Rocket 4.0 19:35:19 10° NNW 19:40:31 62° WSW 19:45:41 10° S
USA 238 DEB 4.5 19:36:03 10° SSE 19:40:53 25° ESE 19:40:53 25° ESE
USA 238 4.5 19:36:10 10° SSE 19:40:54 25° ESE 19:40:54 25° ESE
Cosmos 2263 Rocket 4.0 19:36:24 10° NW 19:41:17 32° WSW 19:46:10 10° SSW
Delta 7925 Rocket 4.0 19:38:59 10° WSW 19:43:21 38° S 19:45:01 28° SE
H-2A R/B 3.2 19:39:16 10° S 19:44:28 48° W 19:49:45 10° NNW
Cosmos 1486 Rocket 4.4 19:39:22 10° NNW 19:44:36 66° WSW 19:49:51 10° S
Okean 1-7 3.2 19:40:36 10° N 19:44:47 45° E 19:45:45 38° ESE
SeaSat 1 3.6 19:40:24 10° N 19:45:05 45° WNW 19:49:45 10° SW
CREW DRAGON DEMO-1 DEB 4.4 19:43:05 10° SSW 19:44:23 22° S 19:44:23 22° S
Cosmos 2322 3.6 19:41:02 10° SSW 19:46:43 76° ESE 19:52:27 10° NNE
USA 234 3.6 19:41:37 10° NE 19:48:03 64° NW 19:54:30 10° WSW
Cosmos 1869 Rocket 3.4 19:48:37 10° S 19:52:52 61° E 19:57:11 10° NNE
CZ-2C R/B 3.3 19:47:38 10° N 19:52:57 56° WNW 19:58:07 10° SSW
SL-8 Rocket 3.9 19:48:47 10° S 19:55:01 78° E 20:01:14 10° N
ATLAS CENTAUR R/B 4.0 19:56:02 10° W 19:58:20 16° NW 20:00:39 10° NNW
DMSP B5D2-2 4.1 19:53:34 10° N 19:58:47 78° WNW 20:03:58 10° SSW
SWIFT 4.4 19:56:39 10° SW 19:59:04 15° S 19:59:10 15° S
Cosmos 1666 3.3 20:01:30 10° SSW 20:05:07 53° W 20:08:46 10° N
CSL-04 Rocket 4.2 20:01:05 10° S 20:06:33 60° WSW 20:12:01 10° NNW
Cosmos 2366 rocket 3.9 20:03:45 10° S 20:10:02 83° E 20:16:24 10° N
Cosmos 44 Rocket 4.0 20:06:08 10° NW 20:11:13 55° WSW 20:14:14 23° S
Cosmos 2084 Rocket 3.4 20:06:54 10° NNW 20:11:20 86° WSW 20:11:34 80° S
Cosmos 1354 Rocket 4.0 20:06:09 10° NNW 20:11:24 80° WSW 20:13:57 31° S
NOSS 3-2 (A) 3.4 20:07:55 10° S 20:12:16 49° SSE 20:12:16 49° SSE
Cosmos 1339 Rocket 4.4 20:09:27 10° N 20:15:42 83° E 20:21:29 13° S
Cosmos 1844 Rocket 2.5 20:11:00 10° NNW 20:16:35 88° ENE 20:17:54 54° SSE
Ariane Rocket 3.8 20:22:15 39° NNE 20:22:15 39° NNE 20:25:37 10° N
Cosmos 2360 Rocket 4.5 20:19:23 10° WSW 20:23:45 23° WNW 20:28:10 10° N
Cosmos 1844 3.6 20:22:54 10° NNW 20:28:41 90° ENE 20:28:55 83° SSE
DELTA 2 R/B (1) 3.6 20:25:41 10° WSW 20:31:13 72° NNW 20:31:15 72° NNW
Cosmos 2333 Rocket 3.2 20:28:24 10° SW 20:33:48 46° WNW 20:39:17 10° N
Cosmos 2278 Rocket 4.5 20:30:07 10° NNE 20:30:28 11° NNE 20:30:28 11° NNE
CENTAUR R/B 4.5 20:33:52 10° S 20:34:01 11° S 20:34:01 11° S
Hubble Space Telescope 3.6 20:45:02 10° SW 20:45:27 12° SW 20:45:27 12° SW
Lacrosse 4 Rocket 3.5 20:46:46 10° WSW 20:50:24 26° WNW 20:50:56 25° NW
COSMOS 2428 4.1 20:58:51 10° SW 21:03:58 35° WNW 21:07:14 20° N
Cosmos 2219 Rocket 4.2 21:06:18 10° WSW 21:10:48 25° WNW 21:15:21 10° N
